This is the latest recevied weather packets stored in our database for station/object W9KHP-1. If no packets are shown the sender has not sent any weather packets the latest 10 day(s).
| Time | Temp. | Humidity | Pressure | Rain* | Wind** | Luminosity | Snow |
|---|---|---|---|---|---|---|---|
| 1777330620 | 26.67° C | 71% | 1009.5 hPa | 0 mm | - | 21 W/m² | - |
| 1777330318 | 26.67° C | 70% | 1009.1 hPa | 0 mm | - | 37 W/m² | - |
| 1777330015 | 26.67° C | 71% | 1009.3 hPa | 0 mm | - | 25 W/m² | - |
| 1777329715 | 26.67° C | 70% | 1009.1 hPa | 0 mm | - | 22 W/m² | - |
| 1777329413 | 26.67° C | 71% | 1009.1 hPa | 0 mm | - | 26 W/m² | - |
| 1777329110 | 26.11° C | 71% | 1009.2 hPa | 0 mm | - | 53 W/m² | - |
| 1777328807 | 26.11° C | 71% | 1009.3 hPa | 0 mm | - | 50 W/m² | - |
| 1777328504 | 26.67° C | 71% | 1009.3 hPa | 0 mm | - | 39 W/m² | - |
| 1777328203 | 26.67° C | 71% | 1009.2 hPa | 0 mm | - | 63 W/m² | - |
| 1777327901 | 26.67° C | 71% | 1009.4 hPa | 0 mm | - | 53 W/m² | - |
| 1777327598 | 26.67° C | 71% | 1009.3 hPa | 0 mm | - | 70 W/m² | - |
| 1777327296 | 26.67° C | 72% | 1009.2 hPa | 0 mm | - | 109 W/m² | - |
| 1777326993 | 26.67° C | 72% | 1009.1 hPa | 0 mm | - | 164 W/m² | - |
| 1777326690 | 26.67° C | 72% | 1009.1 hPa | 0 mm | - | 174 W/m² | - |
| 1777326387 | 26.67° C | 72% | 1009.2 hPa | 0 mm | - | 177 W/m² | - |
| 1777326085 | 26.67° C | 72% | 1009.2 hPa | 0 mm | - | 213 W/m² | - |
| 1777325782 | 26.67° C | 73% | 1009.3 hPa | 0 mm | - | 226 W/m² | - |
| 1777325480 | 26.11° C | 74% | 1009.3 hPa | 0 mm | - | 248 W/m² | - |
| 1777325178 | 25.56° C | 74% | 1009.4 hPa | 0 mm | - | 163 W/m² | - |
| 1777324874 | 25.56° C | 74% | 1009.6 hPa | 0 mm | - | 132 W/m² | - |
| 1777324567 | 25.56° C | 74% | 1009.7 hPa | 0 mm | - | 153 W/m² | - |
| 1777324264 | 25.56° C | 76% | 1009.9 hPa | 0 mm | - | 113 W/m² | - |
| 1777323961 | 25.56° C | 74% | 1009.9 hPa | 0 mm | - | 111 W/m² | - |
| 1777323658 | 25.56° C | 75% | 1009.9 hPa | 0 mm | - | 143 W/m² | - |
| 1777323355 | 25° C | 76% | 1010.3 hPa | 0 mm | - | 159 W/m² | - |
* Rain latest hour (hover to see other rain measurements)
** Current wind speed in m/s (hover to see current wind gust speed)